timestamp,surface_pressure_avg,surface_temp_avg,battery_voltage,lat,long
2019-08-31 00:00:00+00:00,384.5229,17.4,12.97,47.84626,-54.09684
2019-08-31 00:10:00+00:00,381.6729,17.4,12.89,47.84626,-54.09684
2019-08-31 00:20:00+00:00,381.4329,17.4,12.97,47.84626,-54.09684
2019-08-31 00:30:00+00:00,384.3364,17.4,12.97,47.84626,-54.09684
2019-08-31 00:40:00+00:00,380.0096,17.4,12.97,47.84626,-54.09684
2019-08-31 00:50:00+00:00,373.1678,17.4,12.97,47.84626,-54.09684
2019-08-31 01:00:00+00:00,372.5579,17.4,12.97,47.84626,-54.09684
2019-08-31 01:10:00+00:00,373.1413,17.4,12.89,47.84626,-54.09684
2019-08-31 01:20:00+00:00,364.1129,17.4,12.97,47.84626,-54.09684
2019-08-31 01:30:00+00:00,351.8996,17.4,12.97,47.84626,-54.09684
2019-08-31 01:40:00+00:00,346.7446,17.4,12.97,47.84626,-54.09684
2019-08-31 01:50:00+00:00,340.3396,17.4,12.97,47.84626,-54.09684
2019-08-31 02:00:00+00:00,328.108,17.4,12.89,47.84626,-54.09684
2019-08-31 02:10:00+00:00,317.6897,17.4,12.89,47.84626,-54.09684
2019-08-31 02:20:00+00:00,310.9297,17.4,12.97,47.84626,-54.09684
2019-08-31 02:30:00+00:00,299.428,17.4,12.97,47.84626,-54.09684
2019-08-31 02:40:00+00:00,283.1063,17.4,12.97,47.84626,-54.09684
2019-08-31 02:50:00+00:00,271.0564,17.4,12.97,47.84626,-54.09684
2019-08-31 03:00:00+00:00,263.2464,17.4,12.89,47.84626,-54.09684
2019-08-31 03:10:00+00:00,249.0331,17.4,12.81,47.84626,-54.09684
2019-08-31 03:20:00+00:00,235.5665,17.4,12.97,47.84626,-54.09684
2019-08-31 03:30:00+00:00,227.8714,17.4,12.97,47.84626,-54.09684
2019-08-31 03:40:00+00:00,220.2014,17.4,12.97,47.84626,-54.09684
2019-08-31 03:50:00+00:00,207.5547,17.4,12.97,47.84626,-54.09684
2019-08-31 04:00:00+00:00,197.1014,17.4,12.89,47.84626,-54.09684
2019-08-31 04:10:00+00:00,192.4881,17.4,12.81,47.84626,-54.09684
2019-08-31 04:20:00+00:00,188.0398,17.4,12.89,47.84626,-54.09684
2019-08-31 04:30:00+00:00,179.6631,17.4,12.89,47.84626,-54.09684
2019-08-31 04:40:00+00:00,175.1281,17.4,12.97,47.84626,-54.09684
2019-08-31 04:50:00+00:00,176.0948,17.4,12.97,47.84626,-54.09684
2019-08-31 05:00:00+00:00,171.6082,17.4,12.89,47.84626,-54.09684
2019-08-31 05:10:00+00:00,165.7848,17.4,12.81,47.84626,-54.09684
2019-08-31 05:20:00+00:00,162.5815,17.4,12.89,47.84626,-54.09684
2019-08-31 05:30:00+00:00,160.6465,17.44,12.89,47.84626,-54.09684
2019-08-31 05:40:00+00:00,159.5148,17.45,12.89,47.84626,-54.09684
2019-08-31 05:50:00+00:00,156.8365,17.45,12.89,47.84626,-54.09684
2019-08-31 06:00:00+00:00,157.2466,17.45,12.81,47.84626,-54.09684
2019-08-31 06:10:00+00:00,159.4681,17.45,12.81,47.84626,-54.09684
2019-08-31 06:20:00+00:00,157.4215,17.45,12.89,47.84626,-54.09684
2019-08-31 06:30:00+00:00,155.5582,17.45,12.89,47.84626,-54.09684
2019-08-31 06:40:00+00:00,161.3315,17.44,12.89,47.84626,-54.09684
2019-08-31 06:50:00+00:00,167.5798,17.44,12.89,47.84626,-54.09684
2019-08-31 07:00:00+00:00,167.3398,17.44,12.81,47.84626,-54.09684
2019-08-31 07:10:00+00:00,166.7232,17.43,12.73,47.84626,-54.09684
2019-08-31 07:20:00+00:00,176.6998,17.42,12.81,47.84626,-54.09684
2019-08-31 07:30:00+00:00,185.0015,17.41,12.81,47.84626,-54.09684
2019-08-31 07:40:00+00:00,187.2765,17.42,12.89,47.84626,-54.09684
2019-08-31 07:50:00+00:00,196.5114,17.42,12.89,47.84626,-54.09684
2019-08-31 08:00:00+00:00,205.1698,17.42,12.81,47.84626,-54.09684
2019-08-31 08:10:00+00:00,207.0447,17.43,12.73,47.84626,-54.09684
2019-08-31 08:20:00+00:00,210.8698,17.43,12.81,47.84626,-54.09684
2019-08-31 08:30:00+00:00,220.1281,17.42,12.81,47.84626,-54.09684
2019-08-31 08:40:00+00:00,227.4514,17.43,12.89,47.84626,-54.09684
2019-08-31 08:50:00+00:00,233.6581,17.42,12.89,47.84626,-54.09684
2019-08-31 09:00:00+00:00,242.6131,17.42,12.81,47.84626,-54.09684
2019-08-31 09:10:00+00:00,252.4847,17.41,12.73,47.84626,-54.09684
2019-08-31 09:20:00+00:00,259.0497,17.41,12.81,47.84626,-54.09684
2019-08-31 09:30:00+00:00,266.528,17.41,12.81,47.84626,-54.09684
2019-08-31 09:40:00+00:00,276.6064,17.4,12.89,47.84626,-54.09684
2019-08-31 09:50:00+00:00,283.5797,17.4,13.05,47.84626,-54.09684
2019-08-31 10:00:00+00:00,288.1281,17.4,13.37,47.84626,-54.09684
2019-08-31 10:10:00+00:00,299.7596,17.4,13.37,47.84626,-54.09684
2019-08-31 10:20:00+00:00,314.888,17.41,13.68,47.84626,-54.09684
2019-08-31 10:30:00+00:00,321.6614,17.43,13.53,47.84626,-54.09684
2019-08-31 10:40:00+00:00,327.8646,17.43,13.53,47.84626,-54.09684
2019-08-31 10:50:00+00:00,343.0496,17.42,13.6,47.84626,-54.09684
2019-08-31 11:00:00+00:00,353.7879,17.45,13.6,47.84626,-54.09684
2019-08-31 11:10:00+00:00,353.8213,17.45,13.84,47.84626,-54.09684
2019-08-31 11:20:00+00:00,359.923,17.46,13.76,47.84626,-54.09684
2019-08-31 11:30:00+00:00,369.123,17.47,13.68,47.84626,-54.09684
2019-08-31 11:40:00+00:00,370.6929,17.47,13.68,47.84626,-54.09684
2019-08-31 11:50:00+00:00,371.1379,17.49,13.68,47.84626,-54.09684
2019-08-31 12:00:00+00:00,376.6079,17.49,13.76,47.84626,-54.09684
2019-08-31 12:10:00+00:00,377.1846,17.49,13.76,47.84626,-54.09684
2019-08-31 12:20:00+00:00,374.243,17.5,15.91,47.84626,-54.09684
2019-08-31 12:30:00+00:00,375.6196,17.5,15.91,47.84626,-54.09684
2019-08-31 12:40:00+00:00,374.1762,17.5,15.75,47.84626,-54.09684
2019-08-31 12:50:00+00:00,369.0645,17.5,15.2,47.84626,-54.09684
2019-08-31 13:00:00+00:00,363.488,17.5,14.64,47.84626,-54.09684
2019-08-31 13:10:00+00:00,360.4946,17.5,14.56,47.84626,-54.09684
2019-08-31 13:20:00+00:00,354.6563,17.5,14.72,47.84626,-54.09684
2019-08-31 13:30:00+00:00,347.6096,17.5,14.72,47.84626,-54.09684
2019-08-31 13:40:00+00:00,345.3729,17.5,14.64,47.84626,-54.09684
2019-08-31 13:50:00+00:00,342.568,17.46,14.64,47.84626,-54.09684
2019-08-31 14:00:00+00:00,334.5613,17.45,14.56,47.84626,-54.09684
2019-08-31 14:10:00+00:00,325.6346,17.45,14.48,47.84626,-54.09684
2019-08-31 14:20:00+00:00,320.1829,17.48,14.48,47.84626,-54.09684
2019-08-31 14:30:00+00:00,313.2446,17.49,14.32,47.84626,-54.09684
2019-08-31 14:40:00+00:00,302.6347,17.5,14.32,47.84626,-54.09684
2019-08-31 14:50:00+00:00,292.153,17.5,14.56,47.84626,-54.09684
2019-08-31 15:00:00+00:00,281.7197,17.5,14.4,47.84626,-54.09684
2019-08-31 15:10:00+00:00,271.2431,17.5,14.24,47.84626,-54.09684
2019-08-31 15:20:00+00:00,261.4081,17.5,14.24,47.84626,-54.09684
2019-08-31 15:30:00+00:00,250.6197,17.5,14.08,47.84626,-54.09684
2019-08-31 15:40:00+00:00,238.2781,17.5,14.0,47.84626,-54.09684
2019-08-31 15:50:00+00:00,226.6214,17.5,14.24,47.84626,-54.09684
2019-08-31 16:00:00+00:00,217.4847,17.5,14.32,47.84626,-54.09684
2019-08-31 16:10:00+00:00,206.7765,17.5,14.16,47.84626,-54.09684
2019-08-31 16:20:00+00:00,198.1764,17.5,14.32,47.84626,-54.09684
2019-08-31 16:30:00+00:00,191.5798,17.5,14.32,47.84626,-54.09684
2019-08-31 16:40:00+00:00,183.3648,17.5,14.32,47.84626,-54.09684
2019-08-31 16:50:00+00:00,177.3815,17.5,14.24,47.84626,-54.09684
2019-08-31 17:00:00+00:00,175.0148,17.5,14.08,47.84626,-54.09684
2019-08-31 17:10:00+00:00,171.8998,17.49,14.08,47.84626,-54.09684
2019-08-31 17:20:00+00:00,169.4065,17.49,14.24,47.84626,-54.09684
2019-08-31 17:30:00+00:00,169.1832,17.48,14.16,47.84626,-54.09684
2019-08-31 17:40:00+00:00,167.0232,17.49,14.08,47.84626,-54.09684
2019-08-31 17:50:00+00:00,165.8548,17.49,14.08,47.84626,-54.09684
2019-08-31 18:00:00+00:00,167.1898,17.49,14.0,47.84626,-54.09684
2019-08-31 18:10:00+00:00,166.5415,17.5,14.08,47.84626,-54.09684
2019-08-31 18:20:00+00:00,166.0198,17.5,14.16,47.84626,-54.09684
2019-08-31 18:30:00+00:00,168.3965,17.54,14.24,47.84626,-54.09684
2019-08-31 18:40:00+00:00,173.3481,17.59,14.24,47.84626,-54.09684
2019-08-31 18:50:00+00:00,176.6448,17.6,14.16,47.84626,-54.09684
2019-08-31 19:00:00+00:00,177.4248,17.6,14.08,47.84626,-54.09684
2019-08-31 19:10:00+00:00,182.1415,17.6,13.92,47.84626,-54.09684
2019-08-31 19:20:00+00:00,186.6815,17.64,14.0,47.84626,-54.09684
2019-08-31 19:30:00+00:00,186.5931,17.67,14.0,47.84626,-54.09684
2019-08-31 19:40:00+00:00,190.2148,17.68,14.0,47.84626,-54.09684
2019-08-31 19:50:00+00:00,196.6231,17.69,14.0,47.84626,-54.09684
2019-08-31 20:00:00+00:00,201.1015,17.69,13.92,47.84626,-54.09684
2019-08-31 20:10:00+00:00,207.3864,17.7,13.84,47.84626,-54.09684
2019-08-31 20:20:00+00:00,215.7314,17.7,13.84,47.84626,-54.09684
2019-08-31 20:30:00+00:00,223.7881,17.7,13.92,47.84626,-54.09684
2019-08-31 20:40:00+00:00,229.4781,17.7,13.92,47.84626,-54.09684
2019-08-31 20:50:00+00:00,236.1864,17.7,13.84,47.84626,-54.09684
2019-08-31 21:00:00+00:00,245.6997,17.7,13.76,47.84626,-54.09684
2019-08-31 21:10:00+00:00,252.9048,17.7,13.6,47.84626,-54.09684
2019-08-31 21:20:00+00:00,258.3264,17.7,13.53,47.84626,-54.09684
2019-08-31 21:30:00+00:00,264.6797,17.7,13.53,47.84626,-54.09684
2019-08-31 21:40:00+00:00,273.4581,17.7,13.53,47.84626,-54.09684
2019-08-31 21:50:00+00:00,281.5431,17.7,13.53,47.84626,-54.09684
2019-08-31 22:00:00+00:00,289.5164,17.7,13.37,47.84626,-54.09684
2019-08-31 22:10:00+00:00,298.5596,17.7,13.29,47.84626,-54.09684
2019-08-31 22:20:00+00:00,308.6846,17.7,13.21,47.84626,-54.09684
2019-08-31 22:30:00+00:00,319.3896,17.7,13.21,47.84626,-54.09684
2019-08-31 22:40:00+00:00,329.5114,17.7,13.21,47.84626,-54.09684
2019-08-31 22:50:00+00:00,336.9379,17.7,13.13,47.84626,-54.09684
2019-08-31 23:00:00+00:00,346.2813,17.72,13.05,47.84626,-54.09684
2019-08-31 23:10:00+00:00,356.9396,17.73,12.97,47.84626,-54.09684
2019-08-31 23:20:00+00:00,365.3862,17.74,12.97,47.84626,-54.09684
2019-08-31 23:30:00+00:00,368.5714,17.73,12.97,47.84626,-54.09684
2019-08-31 23:40:00+00:00,375.7047,17.75,13.05,47.84626,-54.09684
2019-08-31 23:50:00+00:00,384.6712,17.75,13.05,47.84626,-54.09684
